Terug naar catalogus

COSMOS 569

ActiefMilitairLEO
NORAD 6680·PAYLOAD·🇷🇺 Russia

Gelanceerd Jun 8, 1973 vanaf Plesetsk Cosmodrome

Loading…

Volgende Passages (komende 24 uur)

TLE

VersSource: Space-Track

Epoch: Sep 14, 2026, 14:53 UTC

1  6680U 73037F   26257.62016845 -.00000006  00000-0  58689-4 0  9991
2  6680  74.0222  12.8877 0078673 157.6306 214.4307 12.61179616452340

Volg COSMOS 569 in realtime met AllMySat

Download on the App Store